User: anonymous   Login
Location: Unspecified
(0.0000°N, 0.0000°E)
Time: 03:54:43
(UTC+02:00)
Language:

SJ-6B - Orbit

View from above orbital plane
View from above orbital plane
View from above satellite
View from above satellite

Ground track
Ground track

The orbit data is extracted from the following two-line orbital elements,

1 28415U 04035C   16210.64666103 -.00000013 +00000-0 +36990-5 0  9991
2 28415 097.7757 231.6176 0054041 137.4165 223.1271 15.05785338649889
Epoch (UTC): 28 July 2016 15:31:11
Eccentricity: 0.0054041
inclination: 97.7757°
perigee height: 511 km
apogee height: 586 km
right ascension of ascending node: 231.6176°
argument of perigee: 137.4165°
revolutions per day: 15.05785338
mean anomaly at epoch: 223.1271°
orbit number at epoch: 64988

The dashed part of the orbit path shows where the satellite is in the earth's shadow,  

DLR